Satellite-Ground Cal/Val Region Overpasses Predictions

Prediction of Satellite NPP Overpassing Cal/Val Region: PacNW

Region Location: (Latitude: 10.00, Longitude: 139.50) to (Latitude: 22.70, Longitude: 165.60).

Table of predicted overpasses for the next 14.0 days since TLE Epoch: 9/4/2023
Interval Starting Time Starting Location Ending Time Ending Location
1 09/04/2023 02:27:52 ( 10.05, 163.01) 09/04/2023 02:31:27 ( 22.67, 160.01)
2 09/04/2023 14:59:44 ( 22.70, 160.24) 09/04/2023 15:03:20 ( 10.02, 157.23)
3 09/05/2023 02:11:27 ( 19.34, 165.59) 09/05/2023 02:12:24 ( 22.68, 164.77)
4 09/05/2023 03:50:18 ( 10.01, 142.40) 09/05/2023 03:53:46 ( 22.22, 139.51)
5 09/05/2023 14:40:41 ( 22.69, 165.00) 09/05/2023 14:44:17 ( 10.01, 161.99)
6 09/05/2023 16:22:11 ( 22.68, 139.62) 09/05/2023 16:22:19 ( 22.21, 139.51)
7 09/06/2023 03:31:16 ( 10.02, 147.16) 09/06/2023 03:34:51 ( 22.64, 144.16)
8 09/06/2023 16:03:09 ( 22.67, 144.38) 09/06/2023 16:06:44 ( 10.05, 141.38)
9 09/07/2023 03:12:13 ( 10.03, 151.92) 09/07/2023 03:15:48 ( 22.65, 148.92)
10 09/07/2023 15:44:06 ( 22.66, 149.14) 09/07/2023 15:47:41 ( 10.04, 146.14)
11 09/08/2023 02:53:11 ( 10.04, 156.67) 09/08/2023 02:56:46 ( 22.67, 153.67)
12 09/08/2023 15:25:04 ( 22.65, 153.89) 09/08/2023 15:28:39 ( 10.03, 150.89)
13 09/09/2023 02:34:08 ( 10.05, 161.43) 09/09/2023 02:37:43 ( 22.68, 158.43)
14 09/09/2023 15:06:00 ( 22.69, 158.66) 09/09/2023 15:09:36 ( 10.01, 155.65)
15 09/10/2023 02:15:50 ( 12.65, 165.59) 09/10/2023 02:18:41 ( 22.69, 163.19)
16 09/10/2023 03:56:35 ( 10.02, 140.82) 09/10/2023 03:58:12 ( 15.72, 139.50)
17 09/10/2023 14:46:58 ( 22.68, 163.42) 09/10/2023 14:50:33 ( 10.06, 160.42)
18 09/11/2023 03:37:32 ( 10.04, 145.58) 09/11/2023 03:41:07 ( 22.66, 142.58)
19 09/11/2023 14:30:59 ( 11.86, 165.59) 09/11/2023 14:31:30 ( 10.04, 165.17)
20 09/11/2023 16:09:25 ( 22.65, 142.79) 09/11/2023 16:13:00 ( 10.03, 139.80)
21 09/12/2023 03:18:30 ( 10.05, 150.33) 09/12/2023 03:22:05 ( 22.68, 147.33)
22 09/12/2023 15:50:22 ( 22.70, 147.56) 09/12/2023 15:53:58 ( 10.02, 144.55)
23 09/13/2023 02:59:27 ( 10.01, 155.10) 09/13/2023 03:03:03 ( 22.70, 152.09)
24 09/13/2023 15:31:19 ( 22.68, 152.32) 09/13/2023 15:34:54 ( 10.06, 149.32)
25 09/14/2023 02:40:24 ( 10.03, 159.85) 09/14/2023 02:43:59 ( 22.66, 156.86)
26 09/14/2023 15:12:17 ( 22.66, 157.07) 09/14/2023 15:15:52 ( 10.04, 154.08)
27 09/15/2023 02:21:22 ( 10.05, 164.61) 09/15/2023 02:24:57 ( 22.68, 161.61)
28 09/15/2023 14:53:13 ( 22.70, 161.84) 09/15/2023 14:56:49 ( 10.02, 158.83)
29 09/16/2023 03:43:48 ( 10.02, 144.00) 09/16/2023 03:47:23 ( 22.65, 141.00)
30 09/16/2023 14:35:21 ( 18.57, 165.59) 09/16/2023 14:37:46 ( 10.06, 163.60)
31 09/16/2023 16:15:41 ( 22.67, 141.22) 09/16/2023 16:17:41 ( 15.63, 139.51)
32 09/17/2023 03:24:46 ( 10.05, 148.75) 09/17/2023 03:28:21 ( 22.67, 145.75)
